Weather History for Missoula, MT

Change the Weather History Date:

Wednesday, February 13, 2013

  Actual Average Record
Temperature  
Mean Temperature 37 °F 29 °F  
Max Temperature 41 °F 38 °F 57 °F (1924)
Min Temperature 33 °F 21 °F -20 °F (1895)
Degree Days  
Heating Degree Days 28 36  
Month to date heating degree days 414 475  
Since 1 July heating degree days 4521 4864  
Cooling Degree Days 0 0  
Month to date cooling degree days 0 0  
Year to date cooling degree days 0 0  
Moisture  
Dew Point 31 °F    
Average Humidity 80    
Maximum Humidity 96    
Minimum Humidity 64    
Precipitation  
Precipitation 0.04 in 0.03 in 0.23 in (1984)
Month to date precipitation 0.16 0.32  
Year to date precipitation 1.31 1.17  
Snow  
Snow T in - - ()
Month to date snowfall 1.6  
Year to date snowfall 13.0  
Since 1 July snowfall 34.1  
Snow Depth 0.00 in    
Sea Level Pressure  
Sea Level Pressure 30.19 in    
Wind  
Wind Speed 7 mph (NNW)    
Max Wind Speed 20 mph    
Max Gust Speed 23 mph    
Visibility 10 miles    
Events Rain , Snow    
T = Trace of Precipitation, MM = Missing Value Source: NWS Daily Summary

Daily Weather History Graph

Daily Weather History Graph

Search for Another Location

Airport:

Trip Planner

Search our weather history database for the weather conditions in past years. The results will help you decide how hot, cold, wet, or windy it might be!

Date:

Astronomy

Feb. 13, 2013 Rise Set
Actual Time 7:43 AM MST 5:58 PM MST
Civil Twilight 7:11 AM MST 6:29 PM MST
Nautical Twilight 6:36 AM MST 7:05 PM MST
Astronomical Twilight 6:01 AM MST 7:40 PM MST
Moon 8:57 AM MST (2/13) 10:25 PM MST (2/13)
Length of Visible Light 11h 17m
Length of Day
10h 15m
Waxing Crescent, 14% of the Moon is Illuminated
Feb 13
Waxing Crescent
Feb 17
First Quarter
Feb 25
Full
Mar 4
Last Quarter
Mar 11
New

Hourly Weather History & Observations

Time (MST) Temp. Windchill Dew Point Humidity Pressure Visibility Wind Dir Wind Speed Gust Speed Precip Events Conditions
12:53 AM 37.0 °F 32.4 °F 30.0 °F 76% 30.17 in 10.0 mi SSE 5.8 mph - N/A   Overcast
1:53 AM 37.0 °F 31.6 °F 30.9 °F 79% 30.16 in 10.0 mi ESE 6.9 mph - N/A   Overcast
2:53 AM 39.0 °F 36.8 °F 30.0 °F 70% 30.14 in 10.0 mi ESE 3.5 mph - N/A   Overcast
3:53 AM 37.9 °F 34.4 °F 30.9 °F 76% 30.12 in 10.0 mi East 4.6 mph - N/A   Overcast
4:53 AM 37.0 °F 33.3 °F 30.9 °F 79% 30.12 in 10.0 mi East 4.6 mph - N/A   Overcast
5:53 AM 39.0 °F 32.8 °F 30.9 °F 73% 30.10 in 10.0 mi SSW 9.2 mph - N/A   Overcast
6:53 AM 39.2 °F - 30.2 °F 70% 30.04 in 10.0 mi Calm Calm - N/A   Overcast
7:53 AM 37.0 °F 33.3 °F 30.9 °F 79% 30.12 in 10.0 mi East 4.6 mph - 0.00 in Rain Light Rain
8:53 AM 37.9 °F 34.4 °F 32.0 °F 79% 30.15 in 10.0 mi NW 4.6 mph - 0.00 in Rain Light Rain
9:53 AM 37.9 °F - 33.1 °F 83% 30.17 in 10.0 mi Calm Calm - 0.00 in   Overcast
10:53 AM 37.0 °F - 33.1 °F 86% 30.19 in 10.0 mi Calm Calm - 0.00 in Rain Light Rain
11:53 AM 39.9 °F 33.9 °F 32.0 °F 73% 30.21 in 10.0 mi NNW 9.2 mph - 0.00 in   Overcast
12:53 PM 39.9 °F 32.5 °F 32.0 °F 73% 30.20 in 10.0 mi NNW 12.7 mph - 0.00 in   Overcast
1:48 PM 39.2 °F 33.0 °F 33.8 °F 81% 30.14 in 10.0 mi WNW 9.2 mph - N/A   Mostly Cloudy
1:53 PM 39.9 °F 33.9 °F 32.0 °F 73% 30.20 in 10.0 mi NW 9.2 mph - N/A   Mostly Cloudy
2:04 PM 39.2 °F 35.0 °F 32.0 °F 75% 30.14 in 10.0 mi NW 5.8 mph - N/A   Mostly Cloudy
2:14 PM 39.2 °F 34.2 °F 32.0 °F 75% 30.14 in 10.0 mi NW 6.9 mph - N/A   Mostly Cloudy
2:53 PM 39.9 °F 31.4 °F 30.9 °F 70% 30.19 in 10.0 mi WNW 16.1 mph 19.6 mph N/A   Overcast
3:53 PM 39.9 °F 30.8 °F 28.9 °F 65% 30.20 in 10.0 mi NW 18.4 mph 23.0 mph N/A   Overcast
4:53 PM 39.0 °F 34.0 °F 30.0 °F 70% 30.22 in 10.0 mi North 6.9 mph - N/A   Overcast
5:53 PM 37.9 °F 32.1 °F 28.9 °F 70% 30.23 in 10.0 mi NW 8.1 mph - N/A   Overcast
6:44 PM 35.6 °F 27.5 °F 30.2 °F 81% 30.18 in 9.0 mi WNW 11.5 mph - 0.00 in Snow Light Snow
6:53 PM 35.1 °F 26.9 °F 32.0 °F 89% 30.25 in 9.0 mi WNW 11.5 mph - 0.00 in Rain Light Rain
7:34 PM 33.8 °F 29.6 °F 32.0 °F 93% 30.18 in 10.0 mi WNW 4.6 mph - 0.00 in   Overcast
7:53 PM 35.1 °F 30.1 °F 32.0 °F 89% 30.26 in 10.0 mi North 5.8 mph - 0.00 in   Mostly Cloudy
8:29 PM 35.6 °F 29.9 °F 32.0 °F 87% 30.19 in 10.0 mi North 6.9 mph - 0.00 in   Overcast
8:42 PM 35.6 °F 27.5 °F 32.0 °F 87% 30.19 in 8.0 mi NNW 11.5 mph - 0.00 in Snow Light Snow
8:53 PM 34.0 °F 26.0 °F 32.0 °F 92% 30.27 in 9.0 mi North 10.4 mph - 0.01 in Snow Light Snow
9:05 PM 33.8 °F 25.8 °F 32.0 °F 93% 30.20 in 10.0 mi NNW 10.4 mph - 0.00 in   Overcast
9:53 PM 35.1 °F 27.4 °F 30.9 °F 85% 30.27 in 9.0 mi NNW 10.4 mph - 0.00 in Snow Light Snow
10:53 PM 34.0 °F 28.0 °F 30.0 °F 85% 30.29 in 10.0 mi NW 6.9 mph - 0.00 in   Clear
11:53 PM 34.0 °F 28.0 °F 28.9 °F 82% 30.30 in 10.0 mi NNW 6.9 mph - N/A   Clear